Home   Weather   Havana   Past weeks

Flag for Cuba Past Weather in Havana, Cuba — Yesterday and Last 2 Weeks

Now
75 °F

Passing clouds.


Feels Like: 75 °F
Forecast: 76 / 89 °F
Wind: 6 mph from East

Location: Aeropuerto Jose Marti - Rancho-Boyeros - Habana

Current Time: Apr 29, 2017 at 2:01:12 am

Latest Report: Apr 29, 2017 at 12:55 am


Visibility: 6 mi

Pressure: 30.04 "Hg

Humidity: 83%

Dew Point: 70 °F

Location of HavanaLocation

Past Weather in Havana — Graph

°F

Havana Temperature Yesterday

Maximum temperature yesterday: 93 °F (at 1:55 pm)
Minimum temperature yesterday: 73 °F (at 6:55 pm)
Average temperature yesterday: 79 °F

High & Low Weather Summary for the Past Weeks

 TemperatureHumidityPressure
High93 °F (Apr 28, 1:55 pm)94% (Apr 14, 5:55 am)30.12 "Hg (Apr 14, 5:55 am)
Low55 °F (Apr 14, 6:55 am)35% (Apr 15, 11:55 am)29.77 "Hg (Apr 23, 2:55 am)
Average76 °F71%29.96 "Hg
* Reported Apr 14 12:55 am — Apr 29 12:55 am, Havana, Weather by CustomWeather, © 2017

Note: Actual official high and low records may vary slightly from our data, if they occured in-between our weather recording intervals... More about our weather records

Advertising

Havana Weather History for the Previous 24 Hours

Scroll right to see more
 ConditionsComfort  
Time TempWeatherWind HumidityBarometerVisibility
12:55 am
Sat, Apr 29
75 °FPassing clouds.6 mph83%30.04 "Hg6 mi
11:55 pm
Fri, Apr 28
75 °FPassing clouds.7 mph83%30.01 "Hg6 mi
10:55 pm75 °FPassing clouds.5 mph83%30.04 "Hg6 mi
9:55 pm73 °FPassing clouds.3 mph89%30.01 "Hg6 mi
8:55 pm73 °FPassing clouds.3 mph89%30.01 "Hg6 mi
7:55 pm73 °FPartly cloudy.3 mph89%30.01 "Hg6 mi
7:09 pm73 °FLight rain. Partly sunny.3 mph89%29.98 "Hg4 mi
6:55 pm73 °FMild.13 mph89%30.01 "Hg2 mi
6:37 pm75 °FThunderstorms. Broken clouds.10 mph83%30.01 "Hg4 mi
6:16 pm75 °FThundershowers. Partly sunny.6 mph83%29.98 "Hg5 mi
5:55 pm77 °FScattered clouds.9 mph79%29.98 "Hg6 mi
5:16 pm77 °FLight rain. More clouds than sun.7 mph83%29.98 "Hg4 mi
4:55 pm77 °FThunderstorms. Partly sunny.13 mph79%29.95 "Hg2 mi
4:34 pm77 °FStrong thunderstorms. Broken clouds.15 mph79%29.98 "Hg1 mi
3:55 pm88 °FScattered clouds.10 mph59%29.95 "Hg6 mi
2:55 pm91 °FScattered clouds.9 mph44%29.98 "Hg6 mi
1:55 pm93 °FPartly sunny.8 mph41%29.98 "Hg6 mi
12:55 pm91 °FPartly sunny.9 mph46%30.01 "Hg6 mi
11:55 am88 °FScattered clouds.9 mph52%30.01 "Hg6 mi
10:55 am86 °FScattered clouds.9 mph59%30.01 "Hg6 mi
9:55 am82 °FPassing clouds.9 mph70%30.01 "Hg6 mi
8:55 am79 °FPartly sunny.8 mph79%30.01 "Hg6 mi
7:55 am75 °FScattered clouds.5 mph89%30.01 "Hg6 mi
6:55 am75 °FPassing clouds.5 mph83%29.98 "HgN/A
5:55 am75 °FClear.6 mph83%29.95 "Hg10 mi
4:55 am75 °FClear.7 mph83%29.92 "Hg10 mi
3:55 am75 °FPassing clouds.5 mph83%29.92 "HgN/A
2:55 am75 °FClear.7 mph83%29.95 "Hg10 mi
Weather by CustomWeather, © 2017

See weather overviewHow to use our weather pages